Time,TemperatureF,DewpointF,PressureIn,WindDirection,WindDirectionDegrees,WindSpeedMPH,WindSpeedGustMPH,Humidity,HourlyPrecipIn,Conditions,Clouds,dailyrainin,SoftwareType,DateUTC
2013-05-21 00:01:00,34.0,28.2,30.96,North,0,2.0,4.0,79,0.00,,,0.13,meteohub,2013-05-21 06:01:00,
2013-05-21 00:06:00,34.0,28.2,30.96,North,0,2.0,2.0,79,0.00,,,0.00,meteohub,2013-05-21 06:06:00,
2013-05-21 00:11:00,33.6,28.0,30.95,NE,45,2.0,3.0,80,0.00,,,0.00,meteohub,2013-05-21 06:11:00,
2013-05-21 00:16:00,33.4,27.9,30.95,NE,45,3.0,3.0,80,0.00,,,0.00,meteohub,2013-05-21 06:16:00,
2013-05-21 00:21:00,33.4,27.9,30.96,North,0,2.0,3.0,80,0.00,,,0.00,meteohub,2013-05-21 06:21:00,
2013-05-21 00:26:00,33.3,27.7,30.95,North,0,4.0,4.0,80,0.00,,,0.00,meteohub,2013-05-21 06:26:00,
2013-05-21 00:31:00,33.3,28.0,30.95,North,0,3.0,4.0,81,0.00,,,0.00,meteohub,2013-05-21 06:31:00,
2013-05-21 00:36:00,33.3,28.0,30.95,North,0,2.0,4.0,81,0.00,,,0.00,meteohub,2013-05-21 06:36:00,
2013-05-21 00:41:00,33.3,27.7,30.95,North,0,2.0,4.0,80,0.00,,,0.00,meteohub,2013-05-21 06:41:00,
2013-05-21 00:46:00,33.1,27.5,30.95,North,0,2.0,3.0,80,0.00,,,0.00,meteohub,2013-05-21 06:46:00,
2013-05-21 00:51:00,32.9,27.5,30.95,North,0,3.0,3.0,80,0.00,,,0.00,meteohub,2013-05-21 06:51:00,
2013-05-21 00:56:00,32.7,27.3,30.95,NW,315,2.0,3.0,80,0.00,,,0.00,meteohub,2013-05-21 06:56:00,
2013-05-21 01:01:00,32.5,27.1,30.95,North,0,1.0,3.0,80,0.00,,,0.00,meteohub,2013-05-21 07:01:00,
2013-05-21 01:06:00,32.5,27.1,30.95,NE,45,2.0,3.0,80,0.00,,,0.00,meteohub,2013-05-21 07:06:00,
2013-05-21 01:11:00,32.4,27.0,30.96,NE,45,2.0,3.0,80,0.00,,,0.00,meteohub,2013-05-21 07:11:00,
2013-05-21 01:16:00,32.2,27.0,30.96,NE,45,4.0,4.0,81,0.00,,,0.00,meteohub,2013-05-21 07:16:00,
2013-05-21 01:21:00,32.2,27.0,30.95,NE,45,3.0,4.0,81,0.00,,,0.00,meteohub,2013-05-21 07:21:00,
2013-05-21 01:26:00,32.2,27.0,30.95,North,0,3.0,4.0,81,0.00,,,0.00,meteohub,2013-05-21 07:26:00,
2013-05-21 01:31:00,32.0,26.8,30.95,East,90,1.0,4.0,81,0.00,,,0.00,meteohub,2013-05-21 07:31:00,
2013-05-21 01:36:00,32.0,26.8,30.96,North,0,2.0,4.0,81,0.00,,,0.00,meteohub,2013-05-21 07:36:00,
2013-05-21 01:41:00,31.8,27.0,30.95,North,0,2.0,3.0,82,0.00,,,0.00,meteohub,2013-05-21 07:41:00,
2013-05-21 01:46:00,31.6,26.8,30.95,NE,45,2.0,3.0,82,0.00,,,0.00,meteohub,2013-05-21 07:46:00,
2013-05-21 01:51:00,31.6,26.8,30.95,North,0,3.0,4.0,82,0.00,,,0.00,meteohub,2013-05-21 07:51:00,
2013-05-21 01:56:00,31.5,26.6,30.95,North,0,1.0,4.0,82,0.00,,,0.00,meteohub,2013-05-21 07:56:00,
2013-05-21 02:01:00,31.5,26.6,30.95,North,0,1.0,4.0,82,0.00,,,0.00,meteohub,2013-05-21 08:01:00,
2013-05-21 02:06:00,31.5,26.6,30.95,North,0,1.0,4.0,82,0.00,,,0.00,meteohub,2013-05-21 08:06:00,
2013-05-21 02:11:00,31.6,27.1,30.94,North,0,2.0,3.0,83,0.00,,,0.00,meteohub,2013-05-21 08:11:00,
2013-05-21 02:16:00,31.6,27.1,30.94,WNW,293,2.0,2.0,83,0.00,,,0.00,meteohub,2013-05-21 08:16:00,
2013-05-21 02:21:00,31.5,27.0,30.95,NE,45,2.0,3.0,83,0.00,,,0.00,meteohub,2013-05-21 08:21:00,
2013-05-21 02:26:00,31.5,27.0,30.94,North,0,2.0,3.0,83,0.00,,,0.00,meteohub,2013-05-21 08:26:00,
2013-05-21 02:31:00,31.3,26.8,30.94,North,0,1.0,3.0,83,0.00,,,0.00,meteohub,2013-05-21 08:31:00,
2013-05-21 02:36:00,31.3,26.8,30.94,NE,45,1.0,3.0,83,0.00,,,0.00,meteohub,2013-05-21 08:36:00,
2013-05-21 02:41:00,31.1,26.6,30.95,NE,45,2.0,2.0,83,0.00,,,0.00,meteohub,2013-05-21 08:41:00,
2013-05-21 02:46:00,31.1,26.6,30.94,NE,45,2.0,2.0,83,0.00,,,0.00,meteohub,2013-05-21 08:46:00,
2013-05-21 02:51:00,31.1,26.6,30.94,North,0,2.0,3.0,83,0.00,,,0.00,meteohub,2013-05-21 08:51:00,
2013-05-21 02:56:00,31.1,26.6,30.94,NE,45,2.0,3.0,83,0.00,,,0.00,meteohub,2013-05-21 08:56:00,
2013-05-21 03:01:00,30.9,26.4,30.94,NNE,23,3.0,3.0,83,0.00,,,0.00,meteohub,2013-05-21 09:01:00,
2013-05-21 03:06:00,30.9,26.4,30.94,North,0,3.0,3.0,83,0.00,,,0.00,meteohub,2013-05-21 09:06:00,
2013-05-21 03:11:00,30.9,26.4,30.94,North,0,4.0,4.0,83,0.00,,,0.00,meteohub,2013-05-21 09:11:00,
2013-05-21 03:16:00,31.1,26.6,30.94,NE,45,2.0,4.0,83,0.00,,,0.00,meteohub,2013-05-21 09:16:00,
2013-05-21 03:21:00,31.3,26.8,30.95,NE,45,3.0,4.0,83,0.00,,,0.00,meteohub,2013-05-21 09:21:00,
2013-05-21 03:26:00,31.3,26.8,30.95,North,0,3.0,7.0,83,0.00,,,0.00,meteohub,2013-05-21 09:26:00,
2013-05-21 03:31:00,31.5,27.0,30.94,NE,45,4.0,7.0,83,0.00,,,0.00,meteohub,2013-05-21 09:31:00,
2013-05-21 03:36:00,31.6,27.1,30.94,North,0,4.0,7.0,83,0.00,,,0.00,meteohub,2013-05-21 09:36:00,
2013-05-21 03:41:00,31.6,27.1,30.94,NW,315,2.0,4.0,83,0.00,,,0.00,meteohub,2013-05-21 09:41:00,
2013-05-21 03:46:00,31.6,27.1,30.94,North,0,3.0,4.0,83,0.00,,,0.00,meteohub,2013-05-21 09:46:00,
2013-05-21 03:51:00,31.6,27.1,30.94,North,0,2.0,4.0,83,0.00,,,0.00,meteohub,2013-05-21 09:51:00,
2013-05-21 03:56:00,31.5,27.0,30.94,North,0,2.0,4.0,83,0.00,,,0.00,meteohub,2013-05-21 09:56:00,
2013-05-21 04:01:00,31.3,26.8,30.94,North,0,2.0,4.0,83,0.00,,,0.00,meteohub,2013-05-21 10:01:00,
2013-05-21 04:06:00,31.3,26.8,30.94,North,0,2.0,4.0,83,0.00,,,0.00,meteohub,2013-05-21 10:06:00,
2013-05-21 04:11:00,30.7,25.9,30.94,North,0,3.0,5.0,82,0.00,,,0.00,meteohub,2013-05-21 10:11:00,
2013-05-21 04:16:00,30.7,25.9,30.94,NE,45,2.0,5.0,82,0.00,,,0.00,meteohub,2013-05-21 10:16:00,
2013-05-21 04:21:00,30.6,25.7,30.94,NE,45,3.0,5.0,82,0.00,,,0.00,meteohub,2013-05-21 10:21:00,
2013-05-21 04:26:00,30.4,25.5,30.94,North,0,4.0,4.0,82,0.00,,,0.00,meteohub,2013-05-21 10:26:00,
2013-05-21 04:31:00,30.4,25.9,30.94,North,0,4.0,5.0,83,0.00,,,0.00,meteohub,2013-05-21 10:31:00,
2013-05-21 04:36:00,30.4,25.9,30.94,WSW,248,4.0,5.0,83,0.00,,,0.00,meteohub,2013-05-21 10:36:00,
2013-05-21 04:41:00,30.4,25.9,30.94,North,0,4.0,5.0,83,0.00,,,0.00,meteohub,2013-05-21 10:41:00,
2013-05-21 04:46:00,30.4,25.9,30.94,North,0,3.0,5.0,83,0.00,,,0.00,meteohub,2013-05-21 10:46:00,
2013-05-21 04:51:00,30.4,25.9,30.94,NE,45,3.0,4.0,83,0.00,,,0.00,meteohub,2013-05-21 10:51:00,
2013-05-21 04:56:00,30.7,26.2,30.94,NE,45,2.0,4.0,83,0.00,,,0.00,meteohub,2013-05-21 10:56:00,
2013-05-21 05:01:00,30.7,26.2,30.95,NE,45,2.0,4.0,83,0.00,,,0.00,meteohub,2013-05-21 11:01:00,
2013-05-21 05:06:00,30.9,26.4,30.95,North,0,3.0,4.0,83,0.00,,,0.00,meteohub,2013-05-21 11:06:00,
2013-05-21 05:11:00,30.9,26.4,30.95,NE,45,4.0,4.0,83,0.00,,,0.00,meteohub,2013-05-21 11:11:00,
2013-05-21 05:16:00,31.1,26.6,30.94,NE,45,4.0,4.0,83,0.00,,,0.00,meteohub,2013-05-21 11:16:00,
2013-05-21 05:21:00,31.5,27.0,30.95,NE,45,3.0,4.0,83,0.00,,,0.00,meteohub,2013-05-21 11:21:00,
2013-05-21 05:26:00,31.6,27.1,30.94,NE,45,2.0,4.0,83,0.00,,,0.00,meteohub,2013-05-21 11:26:00,
2013-05-21 05:30:00,31.8,27.3,30.95,NE,45,2.0,4.0,83,0.00,,,0.00,meteohub,2013-05-21 11:30:00,
2013-05-21 05:35:00,32.0,27.1,30.95,NE,45,2.0,4.0,82,0.00,,,0.00,meteohub,2013-05-21 11:35:00,
2013-05-21 05:41:00,32.2,27.3,30.95,NE,45,3.0,3.0,82,0.00,,,0.00,meteohub,2013-05-21 11:41:00,
2013-05-21 05:45:00,32.2,27.0,30.95,NE,45,4.0,4.0,81,0.00,,,0.00,meteohub,2013-05-21 11:45:00,
2013-05-21 05:50:00,32.4,27.1,30.95,NW,315,2.0,4.0,81,0.00,,,0.00,meteohub,2013-05-21 11:50:00,
2013-05-21 05:55:00,32.4,27.1,30.95,NE,45,3.0,4.0,81,0.00,,,0.00,meteohub,2013-05-21 11:55:00,
2013-05-21 06:00:00,32.4,27.1,30.95,North,0,2.0,4.0,81,0.00,,,0.00,meteohub,2013-05-21 12:00:00,
2013-05-21 06:05:00,32.4,27.1,30.95,North,0,2.0,3.0,81,0.00,,,0.00,meteohub,2013-05-21 12:05:00,
2013-05-21 06:10:00,32.4,27.0,30.95,NE,45,3.0,3.0,80,0.00,,,0.00,meteohub,2013-05-21 12:10:00,
2013-05-21 06:15:00,32.5,27.1,30.95,North,0,1.0,3.0,80,0.00,,,0.00,meteohub,2013-05-21 12:15:00,
2013-05-21 06:20:00,32.5,27.1,30.95,North,0,2.0,3.0,80,0.00,,,0.00,meteohub,2013-05-21 12:20:00,
2013-05-21 06:25:00,32.7,27.3,30.95,NE,45,2.0,3.0,80,0.00,,,0.00,meteohub,2013-05-21 12:25:00,
2013-05-21 06:30:00,32.9,27.5,30.95,NE,45,2.0,2.0,80,0.00,,,0.00,meteohub,2013-05-21 12:30:00,
2013-05-21 06:35:00,33.1,27.5,30.95,NE,45,4.0,4.0,80,0.00,,,0.00,meteohub,2013-05-21 12:35:00,
2013-05-21 06:40:00,33.1,27.5,30.96,NE,45,2.0,4.0,80,0.00,,,0.00,meteohub,2013-05-21 12:40:00,
2013-05-21 06:45:00,33.3,27.7,30.96,East,90,4.0,4.0,80,0.00,,,0.00,meteohub,2013-05-21 12:45:00,
2013-05-21 06:50:00,33.4,27.9,30.96,North,0,3.0,4.0,80,0.00,,,0.00,meteohub,2013-05-21 12:50:00,
2013-05-21 06:55:00,33.6,27.9,30.96,NE,45,4.0,4.0,79,0.00,,,0.00,meteohub,2013-05-21 12:55:00,
2013-05-21 07:00:00,33.8,27.3,30.97,North,0,3.0,4.0,77,0.00,,,0.00,meteohub,2013-05-21 13:00:00,
2013-05-21 07:05:00,34.2,27.3,30.96,NW,315,2.0,4.0,76,0.00,,,0.00,meteohub,2013-05-21 13:05:00,
2013-05-21 07:10:00,34.3,27.5,30.96,North,0,2.0,4.0,76,0.00,,,0.00,meteohub,2013-05-21 13:10:00,
2013-05-21 07:15:00,34.5,27.5,30.96,North,0,2.0,4.0,75,0.00,,,0.00,meteohub,2013-05-21 13:15:00,
2013-05-21 07:20:00,34.5,27.5,30.96,North,0,2.0,2.0,75,0.00,,,0.00,meteohub,2013-05-21 13:20:00,
2013-05-21 07:25:00,34.7,27.7,30.97,North,0,2.0,2.0,75,0.00,,,0.00,meteohub,2013-05-21 13:25:00,
2013-05-21 07:30:00,34.9,27.5,30.96,NNW,338,3.0,3.0,74,0.00,,,0.00,meteohub,2013-05-21 13:30:00,
2013-05-21 07:35:00,35.1,27.7,30.96,North,0,2.0,4.0,74,0.00,,,0.00,meteohub,2013-05-21 13:35:00,
2013-05-21 07:40:00,35.2,27.5,30.96,NW,315,2.0,4.0,73,0.00,,,0.00,meteohub,2013-05-21 13:40:00,
2013-05-21 07:45:00,35.4,27.7,30.97,North,0,2.0,3.0,73,0.00,,,0.00,meteohub,2013-05-21 13:45:00,
2013-05-21 07:51:00,35.8,27.7,30.97,NNE,23,4.0,6.0,72,0.00,,,0.00,meteohub,2013-05-21 13:51:00,
2013-05-21 07:56:00,36.0,27.1,30.97,North,0,4.0,6.0,70,0.00,,,0.00,meteohub,2013-05-21 13:56:00,
2013-05-21 08:01:00,36.1,27.3,30.97,ENE,68,3.0,6.0,70,0.00,,,0.00,meteohub,2013-05-21 14:01:00,
2013-05-21 08:06:00,36.1,27.3,30.96,ENE,68,3.0,5.0,70,0.00,,,0.00,meteohub,2013-05-21 14:06:00,
2013-05-21 08:11:00,36.5,27.3,30.96,South,180,3.0,7.0,69,0.00,,,0.00,meteohub,2013-05-21 14:11:00,
2013-05-21 08:16:00,36.7,27.5,30.96,SW,225,9.0,9.0,69,0.00,,,0.00,meteohub,2013-05-21 14:16:00,
2013-05-21 08:21:00,36.9,27.3,30.97,SW,225,4.0,9.0,68,0.00,,,0.00,meteohub,2013-05-21 14:21:00,
2013-05-21 08:26:00,36.7,27.1,30.97,North,0,5.0,9.0,68,0.00,,,0.00,meteohub,2013-05-21 14:26:00,
2013-05-21 08:31:00,36.9,27.3,30.97,East,90,3.0,9.0,68,0.00,,,0.00,meteohub,2013-05-21 14:31:00,
2013-05-21 08:36:00,36.9,27.3,30.97,SW,225,4.0,5.0,68,0.00,,,0.00,meteohub,2013-05-21 14:36:00,
2013-05-21 08:41:00,36.9,27.3,30.97,NW,315,5.0,6.0,68,0.00,,,0.00,meteohub,2013-05-21 14:41:00,
2013-05-21 08:46:00,36.9,27.0,30.97,NW,315,3.0,6.0,67,0.00,,,0.00,meteohub,2013-05-21 14:46:00,
2013-05-21 08:51:00,37.0,27.1,30.97,West,270,2.0,5.0,67,0.00,,,0.00,meteohub,2013-05-21 14:51:00,
2013-05-21 08:56:00,37.2,27.3,30.96,NE,45,2.0,6.0,67,0.00,,,0.00,meteohub,2013-05-21 14:56:00,
2013-05-21 09:01:00,37.4,28.6,30.97,SW,225,2.0,6.0,70,0.00,,,0.00,meteohub,2013-05-21 15:01:00,
2013-05-21 09:06:00,37.8,28.9,30.97,West,270,4.0,6.0,70,0.00,,,0.00,meteohub,2013-05-21 15:06:00,
2013-05-21 09:11:00,38.1,28.9,30.96,NW,315,3.0,6.0,69,0.00,,,0.00,meteohub,2013-05-21 15:11:00,
2013-05-21 09:16:00,38.3,28.9,30.97,North,0,6.0,8.0,69,0.00,,,0.00,meteohub,2013-05-21 15:16:00,
2013-05-21 09:21:00,38.5,28.4,30.97,East,90,3.0,8.0,67,0.00,,,0.00,meteohub,2013-05-21 15:21:00,
2013-05-21 09:26:00,38.5,28.0,30.97,NW,315,5.0,9.0,66,0.00,,,0.00,meteohub,2013-05-21 15:26:00,
2013-05-21 09:31:00,38.7,28.2,30.97,North,0,8.0,9.0,66,0.00,,,0.00,meteohub,2013-05-21 15:31:00,
2013-05-21 09:36:00,39.0,28.6,30.97,North,0,6.0,11.0,66,0.00,,,0.00,meteohub,2013-05-21 15:36:00,
2013-05-21 09:41:00,39.2,28.0,30.97,NW,315,10.0,11.0,64,0.00,,,0.00,meteohub,2013-05-21 15:41:00,
2013-05-21 09:46:00,39.7,28.6,30.96,North,0,9.0,11.0,64,0.00,,,0.00,meteohub,2013-05-21 15:46:00,
2013-05-21 09:51:00,40.5,29.3,30.96,NW,315,7.0,11.0,64,0.00,,,0.00,meteohub,2013-05-21 15:51:00,
2013-05-21 09:56:00,41.0,28.9,30.96,NW,315,10.0,10.0,62,0.00,,,0.00,meteohub,2013-05-21 15:56:00,
2013-05-21 10:01:00,41.0,28.6,30.96,NW,315,7.0,10.0,61,0.00,,,0.00,meteohub,2013-05-21 16:01:00,
2013-05-21 10:06:00,41.0,28.6,30.96,NW,315,7.0,10.0,61,0.00,,,0.00,meteohub,2013-05-21 16:06:00,
2013-05-21 10:11:00,40.8,28.4,30.96,NW,315,8.0,10.0,61,0.00,,,0.00,meteohub,2013-05-21 16:11:00,
2013-05-21 10:16:00,41.0,27.9,30.95,SW,225,11.0,11.0,59,0.00,,,0.00,meteohub,2013-05-21 16:16:00,
2013-05-21 10:21:00,41.4,28.0,30.95,NE,45,8.0,11.0,59,0.00,,,0.00,meteohub,2013-05-21 16:21:00,
2013-05-21 10:26:00,41.7,28.0,30.95,North,0,4.0,11.0,58,0.00,,,0.00,meteohub,2013-05-21 16:26:00,
2013-05-21 10:31:00,42.1,28.4,30.95,WNW,293,8.0,11.0,58,0.00,,,0.00,meteohub,2013-05-21 16:31:00,
2013-05-21 10:36:00,41.7,27.7,30.95,North,0,5.0,11.0,57,0.00,,,0.00,meteohub,2013-05-21 16:36:00,
2013-05-21 10:41:00,41.7,28.0,30.95,NW,315,4.0,10.0,58,0.00,,,0.00,meteohub,2013-05-21 16:41:00,
2013-05-21 10:46:00,41.7,27.7,30.95,North,0,4.0,11.0,57,0.00,,,0.00,meteohub,2013-05-21 16:46:00,
2013-05-21 10:51:00,42.1,27.9,30.95,SE,135,3.0,11.0,57,0.00,,,0.00,meteohub,2013-05-21 16:51:00,
2013-05-21 10:56:00,42.4,28.8,30.95,NE,45,4.0,11.0,58,0.00,,,0.00,meteohub,2013-05-21 16:56:00,
2013-05-21 11:01:00,43.2,28.6,30.95,NE,45,5.0,8.0,56,0.00,,,0.00,meteohub,2013-05-21 17:01:00,
2013-05-21 11:06:00,43.9,29.1,30.95,West,270,3.0,8.0,56,0.00,,,0.00,meteohub,2013-05-21 17:06:00,
2013-05-21 11:11:00,44.6,29.8,30.95,South,180,4.0,8.0,56,0.00,,,0.00,meteohub,2013-05-21 17:11:00,
2013-05-21 11:16:00,44.8,29.7,30.94,SW,225,8.0,8.0,55,0.00,,,0.00,meteohub,2013-05-21 17:16:00,
2013-05-21 11:21:00,45.0,29.3,30.95,SW,225,7.0,11.0,54,0.00,,,0.00,meteohub,2013-05-21 17:21:00,
2013-05-21 11:26:00,44.8,28.8,30.94,West,270,4.0,11.0,53,0.00,,,0.00,meteohub,2013-05-21 17:26:00,
2013-05-21 11:31:00,45.3,29.1,30.94,NE,45,4.0,11.0,53,0.00,,,0.00,meteohub,2013-05-21 17:31:00,
2013-05-21 11:36:00,45.9,29.3,30.94,North,0,3.0,7.0,52,0.00,,,0.00,meteohub,2013-05-21 17:36:00,
2013-05-21 11:41:00,46.6,30.4,30.94,East,90,6.0,6.0,53,0.00,,,0.00,meteohub,2013-05-21 17:41:00,
2013-05-21 11:46:00,46.8,29.7,30.94,SW,225,7.0,9.0,51,0.00,,,0.00,meteohub,2013-05-21 17:46:00,
2013-05-21 11:51:00,47.3,30.6,30.94,North,0,8.0,9.0,52,0.00,,,0.00,meteohub,2013-05-21 17:51:00,
2013-05-21 11:56:00,48.0,31.3,30.94,NW,315,7.0,11.0,52,0.00,,,0.00,meteohub,2013-05-21 17:56:00,
2013-05-21 12:01:00,48.7,30.9,30.93,NW,315,4.0,11.0,50,0.00,,,0.00,meteohub,2013-05-21 18:01:00,
2013-05-21 12:06:00,48.7,30.9,30.93,NW,315,4.0,8.0,50,0.00,,,0.00,meteohub,2013-05-21 18:06:00,
2013-05-21 12:11:00,48.4,28.6,30.94,NE,45,11.0,11.0,46,0.00,,,0.00,meteohub,2013-05-21 18:11:00,
2013-05-21 12:16:00,47.8,29.7,30.94,NNW,338,9.0,11.0,49,0.00,,,0.00,meteohub,2013-05-21 18:16:00,
2013-05-21 12:21:00,47.7,30.0,30.93,NE,45,6.0,11.0,50,0.00,,,0.00,meteohub,2013-05-21 18:21:00,
2013-05-21 12:26:00,47.1,29.5,30.93,North,0,9.0,11.0,50,0.00,,,0.00,meteohub,2013-05-21 18:26:00,
2013-05-21 12:31:00,47.1,30.4,30.93,West,270,4.0,11.0,52,0.00,,,0.00,meteohub,2013-05-21 18:31:00,
2013-05-21 12:36:00,47.7,31.3,30.92,NNW,338,4.0,11.0,53,0.00,,,0.00,meteohub,2013-05-21 18:36:00,
2013-05-21 12:41:00,48.2,29.5,30.92,North,0,10.0,14.0,48,0.00,,,0.00,meteohub,2013-05-21 18:41:00,
2013-05-21 12:46:00,47.8,29.7,30.92,NE,45,5.0,15.0,49,0.00,,,0.00,meteohub,2013-05-21 18:46:00,
2013-05-21 12:51:00,48.4,30.6,30.92,North,0,5.0,15.0,50,0.00,,,0.00,meteohub,2013-05-21 18:51:00,
2013-05-21 12:56:00,48.7,29.5,30.92,NW,315,8.0,15.0,47,0.00,,,0.00,meteohub,2013-05-21 18:56:00,
2013-05-21 13:01:00,50.0,30.0,30.92,NW,315,4.0,12.0,46,0.00,,,0.00,meteohub,2013-05-21 19:01:00,
2013-05-21 13:06:00,51.1,30.6,30.92,NE,45,11.0,12.0,45,0.00,,,0.00,meteohub,2013-05-21 19:06:00,
2013-05-21 13:11:00,51.4,29.7,30.92,NE,45,11.0,16.0,43,0.00,,,0.00,meteohub,2013-05-21 19:11:00,
2013-05-21 13:16:00,50.7,28.4,30.92,North,0,8.0,16.0,42,0.00,,,0.00,meteohub,2013-05-21 19:16:00,
2013-05-21 13:21:00,50.9,28.6,30.91,North,0,11.0,16.0,42,0.00,,,0.00,meteohub,2013-05-21 19:21:00,
2013-05-21 13:26:00,50.7,27.9,30.92,NW,315,11.0,12.0,41,0.00,,,0.00,meteohub,2013-05-21 19:26:00,
2013-05-21 13:31:00,50.4,27.5,30.92,SW,225,7.0,12.0,41,0.00,,,0.00,meteohub,2013-05-21 19:31:00,
2013-05-21 13:36:00,50.4,28.2,30.92,NW,315,10.0,12.0,42,0.00,,,0.00,meteohub,2013-05-21 19:36:00,
2013-05-21 13:41:00,50.5,28.2,30.92,NE,45,5.0,11.0,42,0.00,,,0.00,meteohub,2013-05-21 19:41:00,
2013-05-21 13:46:00,51.3,29.5,30.92,North,0,10.0,11.0,43,0.00,,,0.00,meteohub,2013-05-21 19:46:00,
2013-05-21 13:51:00,52.0,28.9,30.91,NW,315,7.0,11.0,41,0.00,,,0.00,meteohub,2013-05-21 19:51:00,
2013-05-21 13:56:00,52.3,28.8,30.91,SW,225,6.0,11.0,40,0.00,,,0.00,meteohub,2013-05-21 19:56:00,
2013-05-21 14:01:00,51.8,28.2,30.91,NE,45,7.0,14.0,40,0.00,,,0.00,meteohub,2013-05-21 20:01:00,
2013-05-21 14:06:00,51.8,28.2,30.92,NE,45,7.0,14.0,40,0.00,,,0.00,meteohub,2013-05-21 20:06:00,
2013-05-21 14:11:00,51.8,27.7,30.91,NW,315,6.0,12.0,39,0.00,,,0.00,meteohub,2013-05-21 20:11:00,
2013-05-21 14:16:00,51.6,28.8,30.91,SW,225,6.0,12.0,41,0.00,,,0.00,meteohub,2013-05-21 20:16:00,
2013-05-21 14:21:00,51.6,28.0,30.91,NE,45,12.0,12.0,40,0.00,,,0.00,meteohub,2013-05-21 20:21:00,
2013-05-21 14:26:00,51.3,27.7,30.91,NE,45,6.0,12.0,40,0.00,,,0.00,meteohub,2013-05-21 20:26:00,
2013-05-21 14:31:00,51.4,27.9,30.90,SSE,158,4.0,12.0,40,0.00,,,0.00,meteohub,2013-05-21 20:31:00,
2013-05-21 14:36:00,52.7,29.1,30.90,North,0,8.0,12.0,40,0.00,,,0.00,meteohub,2013-05-21 20:36:00,
2013-05-21 14:41:00,52.7,27.1,30.90,NW,315,8.0,11.0,37,0.00,,,0.00,meteohub,2013-05-21 20:41:00,
2013-05-21 14:46:00,52.5,28.2,30.90,North,0,13.0,13.0,39,0.00,,,0.00,meteohub,2013-05-21 20:46:00,
2013-05-21 14:51:00,53.2,27.7,30.90,NW,315,4.0,13.0,37,0.00,,,0.00,meteohub,2013-05-21 20:51:00,
2013-05-21 14:56:00,52.7,25.2,30.90,NW,315,6.0,13.0,34,0.00,,,0.00,meteohub,2013-05-21 20:56:00,
2013-05-21 15:01:00,53.1,25.3,30.90,North,0,5.0,13.0,34,0.00,,,0.00,meteohub,2013-05-21 21:01:00,
2013-05-21 15:06:00,53.2,24.8,30.90,North,0,5.0,10.0,33,0.00,,,0.00,meteohub,2013-05-21 21:06:00,
2013-05-21 15:11:00,54.0,24.1,30.90,NW,315,6.0,13.0,31,0.00,,,0.00,meteohub,2013-05-21 21:11:00,
2013-05-21 15:16:00,55.4,26.8,30.89,North,0,7.0,13.0,33,0.00,,,0.00,meteohub,2013-05-21 21:16:00,
2013-05-21 15:21:00,56.5,27.0,30.89,NE,45,8.0,13.0,32,0.00,,,0.00,meteohub,2013-05-21 21:21:00,
2013-05-21 15:26:00,57.6,26.4,30.90,NW,315,14.0,14.0,30,0.00,,,0.00,meteohub,2013-05-21 21:26:00,
2013-05-21 15:31:00,57.4,22.8,30.89,North,0,14.0,14.0,26,0.00,,,0.00,meteohub,2013-05-21 21:31:00,
2013-05-21 15:36:00,56.8,21.4,30.90,NW,315,6.0,14.0,25,0.00,,,0.00,meteohub,2013-05-21 21:36:00,
2013-05-21 15:41:00,57.4,23.7,30.89,NE,45,11.0,14.0,27,0.00,,,0.00,meteohub,2013-05-21 21:41:00,
2013-05-21 15:46:00,56.8,22.3,30.89,NE,45,10.0,14.0,26,0.00,,,0.00,meteohub,2013-05-21 21:46:00,
2013-05-21 15:51:00,57.4,24.6,30.89,West,270,3.0,14.0,28,0.00,,,0.00,meteohub,2013-05-21 21:51:00,
2013-05-21 15:56:00,58.1,25.2,30.88,North,0,6.0,14.0,28,0.00,,,0.00,meteohub,2013-05-21 21:56:00,
2013-05-21 16:02:00,58.3,24.4,30.88,NW,315,8.0,14.0,27,0.00,,,0.00,meteohub,2013-05-21 22:02:00,
2013-05-21 16:06:00,58.3,24.4,30.88,NW,315,8.0,10.0,27,0.00,,,0.00,meteohub,2013-05-21 22:06:00,
2013-05-21 16:11:00,58.6,27.3,30.88,SW,225,5.0,13.0,30,0.00,,,0.00,meteohub,2013-05-21 22:11:00,
2013-05-21 16:16:00,58.8,25.0,30.88,North,0,9.0,13.0,27,0.00,,,0.00,meteohub,2013-05-21 22:16:00,
2013-05-21 16:22:00,58.6,24.8,30.87,SW,225,5.0,15.0,27,0.00,,,0.00,meteohub,2013-05-21 22:22:00,
2013-05-21 16:27:00,58.6,25.7,30.87,NW,315,10.0,15.0,28,0.00,,,0.00,meteohub,2013-05-21 22:27:00,
2013-05-21 16:32:00,58.6,23.9,30.88,WNW,293,8.0,14.0,26,0.00,,,0.00,meteohub,2013-05-21 22:32:00,
2013-05-21 16:37:00,58.5,21.7,30.88,West,270,8.0,15.0,24,0.00,,,0.00,meteohub,2013-05-21 22:37:00,
2013-05-21 16:42:00,58.5,21.7,30.88,North,0,4.0,15.0,24,0.00,,,0.00,meteohub,2013-05-21 22:42:00,
2013-05-21 16:47:00,58.6,21.0,30.88,NE,45,15.0,15.0,23,0.00,,,0.00,meteohub,2013-05-21 22:47:00,
2013-05-21 16:52:00,58.6,21.0,30.87,NW,315,14.0,15.0,23,0.00,,,0.00,meteohub,2013-05-21 22:52:00,
2013-05-21 16:57:00,58.5,20.8,30.88,SW,225,8.0,15.0,23,0.00,,,0.00,meteohub,2013-05-21 22:57:00,
2013-05-21 17:02:00,58.6,21.9,30.87,NW,315,5.0,15.0,24,0.00,,,0.00,meteohub,2013-05-21 23:02:00,
2013-05-21 17:07:00,58.6,21.9,30.88,North,0,10.0,14.0,24,0.00,,,0.00,meteohub,2013-05-21 23:07:00,
2013-05-21 17:12:00,59.0,22.3,30.88,West,270,5.0,11.0,24,0.00,,,0.00,meteohub,2013-05-21 23:12:00,
2013-05-21 17:17:00,58.8,23.0,30.88,North,0,8.0,12.0,25,0.00,,,0.00,meteohub,2013-05-21 23:17:00,
2013-05-21 17:22:00,58.3,23.5,30.88,West,270,5.0,12.0,26,0.00,,,0.00,meteohub,2013-05-21 23:22:00,
2013-05-21 17:27:00,58.3,23.5,30.88,West,270,8.0,12.0,26,0.00,,,0.00,meteohub,2013-05-21 23:27:00,
2013-05-21 17:32:00,58.3,23.5,30.88,North,0,9.0,11.0,26,0.00,,,0.00,meteohub,2013-05-21 23:32:00,
2013-05-21 17:37:00,58.3,22.6,30.88,North,0,12.0,12.0,25,0.00,,,0.00,meteohub,2013-05-21 23:37:00,
2013-05-21 17:42:00,58.1,22.5,30.88,North,0,10.0,12.0,25,0.00,,,0.00,meteohub,2013-05-21 23:42:00,
2013-05-21 17:47:00,57.7,23.0,30.88,West,270,5.0,13.0,26,0.00,,,0.00,meteohub,2013-05-21 23:47:00,
2013-05-21 17:52:00,57.9,24.1,30.88,WNW,293,7.0,13.0,27,0.00,,,0.00,meteohub,2013-05-21 23:52:00,
2013-05-21 17:57:00,58.3,24.4,30.88,NW,315,6.0,12.0,27,0.00,,,0.00,meteohub,2013-05-21 23:57:00,
2013-05-21 18:02:00,58.5,24.6,30.87,South,180,7.0,8.0,27,0.00,,,0.00,meteohub,2013-05-22 00:02:00,
2013-05-21 18:07:00,58.5,24.6,30.88,South,180,7.0,8.0,27,0.00,,,0.00,meteohub,2013-05-22 00:07:00,
2013-05-21 18:12:00,55.6,23.0,30.88,North,0,8.0,8.0,28,0.00,,,0.00,meteohub,2013-05-22 00:12:00,
2013-05-21 18:16:00,55.0,22.5,30.88,North,0,10.0,10.0,28,0.00,,,0.00,meteohub,2013-05-22 00:16:00,
2013-05-21 18:22:00,54.0,22.5,30.89,North,0,5.0,11.0,29,0.00,,,0.00,meteohub,2013-05-22 00:22:00,
2013-05-21 18:27:00,53.2,24.1,30.89,East,90,3.0,11.0,32,0.00,,,0.00,meteohub,2013-05-22 00:27:00,
2013-05-21 18:33:00,52.5,24.3,30.89,NW,315,4.0,11.0,33,0.00,,,0.00,meteohub,2013-05-22 00:33:00,
2013-05-21 18:38:00,52.3,24.8,30.89,North,0,7.0,8.0,34,0.00,,,0.00,meteohub,2013-05-22 00:38:00,
2013-05-21 18:43:00,52.2,24.6,30.89,North,0,8.0,8.0,34,0.00,,,0.00,meteohub,2013-05-22 00:43:00,
2013-05-21 18:48:00,52.3,24.8,30.89,North,0,7.0,8.0,34,0.00,,,0.00,meteohub,2013-05-22 00:48:00,
2013-05-21 18:53:00,52.3,24.8,30.89,NE,45,7.0,10.0,34,0.00,,,0.00,meteohub,2013-05-22 00:53:00,
2013-05-21 18:58:00,51.8,25.7,30.89,NW,315,3.0,11.0,36,0.00,,,0.00,meteohub,2013-05-22 00:58:00,
2013-05-21 19:03:00,51.4,26.1,30.89,West,270,4.0,11.0,37,0.00,,,0.00,meteohub,2013-05-22 01:03:00,
2013-05-21 19:08:00,51.3,26.6,30.89,North,0,5.0,11.0,38,0.00,,,0.00,meteohub,2013-05-22 01:08:00,
2013-05-21 19:13:00,51.1,26.4,30.89,West,270,3.0,6.0,38,0.00,,,0.00,meteohub,2013-05-22 01:13:00,
2013-05-21 19:18:00,51.1,27.7,30.89,SW,225,1.0,5.0,40,0.00,,,0.00,meteohub,2013-05-22 01:18:00,
2013-05-21 19:23:00,50.9,27.5,30.89,West,270,2.0,5.0,40,0.00,,,0.00,meteohub,2013-05-22 01:23:00,
2013-05-21 19:28:00,50.9,27.5,30.89,West,270,2.0,4.0,40,0.00,,,0.00,meteohub,2013-05-22 01:28:00,
2013-05-21 19:33:00,50.9,27.5,30.89,NE,45,2.0,2.0,40,0.00,,,0.00,meteohub,2013-05-22 01:33:00,
2013-05-21 19:38:00,50.9,27.5,30.89,SW,225,3.0,3.0,40,0.00,,,0.00,meteohub,2013-05-22 01:38:00,
2013-05-21 19:43:00,50.9,27.5,30.89,NW,315,4.0,4.0,40,0.00,,,0.00,meteohub,2013-05-22 01:43:00,
2013-05-21 19:48:00,50.9,27.5,30.89,NE,45,4.0,4.0,40,0.00,,,0.00,meteohub,2013-05-22 01:48:00,
2013-05-21 19:53:00,50.4,27.0,30.89,NE,45,4.0,4.0,40,0.00,,,0.00,meteohub,2013-05-22 01:53:00,
2013-05-21 19:58:00,49.8,27.7,30.89,NE,45,2.0,4.0,42,0.00,,,0.00,meteohub,2013-05-22 01:58:00,
2013-05-21 20:03:00,49.5,27.3,30.90,East,90,2.0,4.0,42,0.00,,,0.00,meteohub,2013-05-22 02:03:00,
2013-05-21 20:08:00,48.4,27.5,30.90,East,90,3.0,4.0,44,0.00,,,0.00,meteohub,2013-05-22 02:08:00,
2013-05-21 20:13:00,47.7,28.4,30.90,East,90,2.0,2.0,47,0.00,,,0.00,meteohub,2013-05-22 02:13:00,
2013-05-21 20:18:00,46.8,28.0,30.90,East,90,2.0,70.0,48,0.00,,,0.00,meteohub,2013-05-22 02:18:00,
2013-05-21 20:23:00,45.9,27.9,30.90,East,90,4.0,70.0,49,0.00,,,0.00,meteohub,2013-05-22 02:23:00,
2013-05-21 20:28:00,45.0,27.9,30.90,East,90,4.0,70.0,51,0.00,,,0.00,meteohub,2013-05-22 02:28:00,
2013-05-21 20:33:00,44.4,28.8,30.91,North,0,2.0,5.0,54,0.00,,,0.00,meteohub,2013-05-22 02:33:00,
2013-05-21 20:38:00,44.2,29.1,30.91,East,90,3.0,5.0,55,0.00,,,0.00,meteohub,2013-05-22 02:38:00,
2013-05-21 20:43:00,44.2,29.1,30.90,East,90,1.0,5.0,55,0.00,,,0.00,meteohub,2013-05-22 02:43:00,
2013-05-21 20:48:00,44.2,29.5,30.91,East,90,1.0,4.0,56,0.00,,,0.00,meteohub,2013-05-22 02:48:00,
2013-05-21 20:53:00,44.2,28.6,30.91,East,90,0.0,3.0,54,0.00,,,0.00,meteohub,2013-05-22 02:53:00,
2013-05-21 20:58:00,44.1,28.0,30.91,South,180,2.0,2.0,53,0.00,,,0.00,meteohub,2013-05-22 02:58:00,
2013-05-21 21:03:00,43.9,28.8,30.91,South,180,2.0,2.0,55,0.00,,,0.00,meteohub,2013-05-22 03:03:00,
2013-05-21 21:08:00,43.7,28.6,30.91,South,180,2.0,2.0,55,0.00,,,0.00,meteohub,2013-05-22 03:08:00,
2013-05-21 21:13:00,43.7,29.1,30.91,East,90,2.0,3.0,56,0.00,,,0.00,meteohub,2013-05-22 03:13:00,
2013-05-21 21:18:00,43.5,29.3,30.91,East,90,3.0,3.0,57,0.00,,,0.00,meteohub,2013-05-22 03:18:00,
2013-05-21 21:23:00,43.2,29.8,30.91,East,90,4.0,4.0,59,0.00,,,0.00,meteohub,2013-05-22 03:23:00,
2013-05-21 21:28:00,42.8,29.5,30.91,East,90,4.0,4.0,59,0.00,,,0.00,meteohub,2013-05-22 03:28:00,
2013-05-21 21:33:00,42.6,30.2,30.91,East,90,3.0,4.0,61,0.00,,,0.00,meteohub,2013-05-22 03:33:00,
2013-05-21 21:38:00,42.6,30.2,30.92,SE,135,0.0,4.0,61,0.00,,,0.00,meteohub,2013-05-22 03:38:00,
2013-05-21 21:43:00,42.4,30.0,30.92,East,90,2.0,4.0,61,0.00,,,0.00,meteohub,2013-05-22 03:43:00,
2013-05-21 21:48:00,42.4,30.4,30.92,East,90,3.0,4.0,62,0.00,,,0.00,meteohub,2013-05-22 03:48:00,
2013-05-21 21:53:00,42.3,30.2,30.91,East,90,4.0,4.0,62,0.00,,,0.00,meteohub,2013-05-22 03:53:00,
2013-05-21 21:58:00,42.1,30.0,30.92,SE,135,2.0,4.0,62,0.00,,,0.00,meteohub,2013-05-22 03:58:00,
2013-05-21 22:01:00,42.1,30.0,30.92,SE,135,2.0,4.0,62,0.00,,,0.00,meteohub,2013-05-22 04:01:00,
2013-05-21 22:06:00,42.1,30.0,30.92,SE,135,2.0,4.0,62,0.00,,,0.00,meteohub,2013-05-22 04:06:00,
2013-05-21 22:11:00,41.5,29.8,30.92,SE,135,2.0,3.0,63,0.00,,,0.00,meteohub,2013-05-22 04:11:00,
2013-05-21 22:16:00,41.4,29.7,30.92,South,180,4.0,4.0,63,0.00,,,0.00,meteohub,2013-05-22 04:16:00,
2013-05-21 22:21:00,41.4,29.7,30.92,SE,135,4.0,4.0,63,0.00,,,0.00,meteohub,2013-05-22 04:21:00,
2013-05-21 22:26:00,41.4,29.7,30.92,SE,135,5.0,5.0,63,0.00,,,0.00,meteohub,2013-05-22 04:26:00,
2013-05-21 22:31:00,41.2,29.5,30.93,South,180,4.0,5.0,63,0.00,,,0.00,meteohub,2013-05-22 04:31:00,
2013-05-21 22:36:00,41.2,29.5,30.92,SE,135,4.0,5.0,63,0.00,,,0.00,meteohub,2013-05-22 04:36:00,
2013-05-21 22:41:00,41.2,29.5,30.92,SSE,158,4.0,5.0,63,0.00,,,0.00,meteohub,2013-05-22 04:41:00,
2013-05-21 22:46:00,41.2,29.5,30.92,SE,135,5.0,5.0,63,0.00,,,0.00,meteohub,2013-05-22 04:46:00,
2013-05-21 22:51:00,41.2,29.5,30.92,SE,135,7.0,7.0,63,0.00,,,0.00,meteohub,2013-05-22 04:51:00,
2013-05-21 22:56:00,41.2,29.5,30.92,South,180,3.0,7.0,63,0.00,,,0.00,meteohub,2013-05-22 04:56:00,
2013-05-21 23:01:00,41.2,29.1,30.93,SE,135,3.0,7.0,62,0.00,,,0.00,meteohub,2013-05-22 05:01:00,
2013-05-21 23:06:00,40.6,29.1,30.92,East,90,3.0,7.0,63,0.00,,,0.00,meteohub,2013-05-22 05:06:00,
2013-05-21 23:11:00,40.5,29.3,30.92,South,180,3.0,4.0,64,0.00,,,0.00,meteohub,2013-05-22 05:11:00,
2013-05-21 23:16:00,39.9,28.8,30.92,SE,135,3.0,4.0,64,0.00,,,0.00,meteohub,2013-05-22 05:16:00,
2013-05-21 23:21:00,39.6,28.8,30.92,East,90,4.0,4.0,65,0.00,,,0.00,meteohub,2013-05-22 05:21:00,
2013-05-21 23:26:00,38.7,28.2,30.92,North,0,2.0,4.0,66,0.00,,,0.00,meteohub,2013-05-22 05:26:00,
2013-05-21 23:31:00,37.9,28.0,30.92,SE,135,2.0,4.0,67,0.00,,,0.00,meteohub,2013-05-22 05:31:00,
2013-05-21 23:37:00,37.8,28.2,30.92,East,90,3.0,4.0,68,0.00,,,0.00,meteohub,2013-05-22 05:37:00,
2013-05-21 23:42:00,37.8,28.6,30.92,SE,135,1.0,4.0,69,0.00,,,0.00,meteohub,2013-05-22 05:42:00,
2013-05-21 23:47:00,37.4,28.2,30.92,East,90,3.0,4.0,69,0.00,,,0.00,meteohub,2013-05-22 05:47:00,
2013-05-21 23:52:00,37.2,27.0,30.91,South,180,2.0,4.0,66,0.00,,,0.00,meteohub,2013-05-22 05:52:00,
2013-05-21 23:57:00,37.4,28.6,30.92,East,90,2.0,4.0,70,0.00,,,0.00,meteohub,2013-05-22 05:57:00,